Year,Month,Day,Hour,Minute,Value (Times are PST for temperature in C)
2014,04,26,00,00,5.60
2014,04,26,00,01,5.60
2014,04,26,00,02,5.60
2014,04,26,00,03,5.60
2014,04,26,00,04,5.60
2014,04,26,00,05,5.60
2014,04,26,00,06,5.60
2014,04,26,00,07,5.60
2014,04,26,00,08,5.60
2014,04,26,00,09,5.60
2014,04,26,00,10,5.60
2014,04,26,00,11,5.60
2014,04,26,00,12,5.60
2014,04,26,00,13,5.50
2014,04,26,00,14,5.50
2014,04,26,00,15,5.50
2014,04,26,00,16,5.40
2014,04,26,00,17,5.40
2014,04,26,00,18,5.40
2014,04,26,00,19,5.40
2014,04,26,00,20,5.40
2014,04,26,00,21,5.40
2014,04,26,00,22,5.40
2014,04,26,00,23,5.40
2014,04,26,00,24,5.40
2014,04,26,00,25,5.30
2014,04,26,00,26,5.30
2014,04,26,00,27,5.30
2014,04,26,00,28,5.30
2014,04,26,00,29,5.30
2014,04,26,00,30,5.30
2014,04,26,00,31,5.30
2014,04,26,00,32,5.20
2014,04,26,00,33,5.20
2014,04,26,00,34,5.20
2014,04,26,00,35,5.20
2014,04,26,00,36,5.20
2014,04,26,00,37,5.10
2014,04,26,00,38,5.10
2014,04,26,00,39,5.10
2014,04,26,00,40,5.10
2014,04,26,00,41,5.10
2014,04,26,00,42,5.00
2014,04,26,00,43,5.00
2014,04,26,00,44,4.90
2014,04,26,00,45,4.90
2014,04,26,00,46,4.80
2014,04,26,00,47,4.80
2014,04,26,00,48,4.80
2014,04,26,00,49,4.80
2014,04,26,00,50,4.80
2014,04,26,00,51,4.80
2014,04,26,00,52,4.80
2014,04,26,00,53,4.80
2014,04,26,00,54,4.80
2014,04,26,00,55,4.80
2014,04,26,00,56,4.80
2014,04,26,00,57,4.70
2014,04,26,00,58,4.70
2014,04,26,00,59,4.70
2014,04,26,01,00,4.70
2014,04,26,01,01,4.70
2014,04,26,01,02,4.70
2014,04,26,01,03,4.60
2014,04,26,01,04,4.60
2014,04,26,01,05,4.60
2014,04,26,01,06,4.60
2014,04,26,01,07,4.50
2014,04,26,01,08,4.50
2014,04,26,01,09,4.50
2014,04,26,01,10,4.40
2014,04,26,01,11,4.40
2014,04,26,01,12,4.40
2014,04,26,01,13,4.40
2014,04,26,01,14,4.40
2014,04,26,01,15,4.40
2014,04,26,01,16,4.30
2014,04,26,01,17,4.30
2014,04,26,01,18,4.30
2014,04,26,01,19,4.30
2014,04,26,01,20,4.30
2014,04,26,01,21,4.30
2014,04,26,01,22,4.20
2014,04,26,01,23,4.20
2014,04,26,01,24,4.20
2014,04,26,01,25,4.20
2014,04,26,01,26,4.20
2014,04,26,01,27,4.10
2014,04,26,01,28,4.10
2014,04,26,01,29,4.10
2014,04,26,01,30,4.10
2014,04,26,01,31,4.10
2014,04,26,01,32,4.10
2014,04,26,01,33,4.10
2014,04,26,01,34,4.00
2014,04,26,01,35,4.00
2014,04,26,01,36,4.00
2014,04,26,01,37,3.90
2014,04,26,01,38,3.90
2014,04,26,01,39,3.90
2014,04,26,01,40,3.90
2014,04,26,01,41,3.90
2014,04,26,01,42,3.90
2014,04,26,01,43,3.90
2014,04,26,01,44,3.90
2014,04,26,01,45,3.90
2014,04,26,01,46,3.90
2014,04,26,01,47,3.80
2014,04,26,01,48,3.80
2014,04,26,01,49,3.80
2014,04,26,01,50,3.80
2014,04,26,01,51,3.80
2014,04,26,01,52,3.80
2014,04,26,01,53,3.80
2014,04,26,01,54,3.80
2014,04,26,01,55,3.70
2014,04,26,01,56,3.70
2014,04,26,01,57,3.80
2014,04,26,01,58,3.70
2014,04,26,01,59,3.70
2014,04,26,02,00,3.70
2014,04,26,02,01,3.70
2014,04,26,02,02,3.70
2014,04,26,02,03,3.70
2014,04,26,02,04,3.70
2014,04,26,02,05,3.70
2014,04,26,02,06,3.70
2014,04,26,02,07,3.70
2014,04,26,02,08,3.70
2014,04,26,02,09,3.70
2014,04,26,02,10,3.70
2014,04,26,02,11,3.70
2014,04,26,02,12,3.70
2014,04,26,02,13,3.80
2014,04,26,02,14,3.80
2014,04,26,02,15,3.80
2014,04,26,02,16,3.80
2014,04,26,02,17,3.80
2014,04,26,02,18,3.80
2014,04,26,02,19,3.80
2014,04,26,02,20,3.80
2014,04,26,02,21,3.80
2014,04,26,02,22,3.80
2014,04,26,02,23,3.80
2014,04,26,02,24,3.80
2014,04,26,02,25,3.80
2014,04,26,02,26,3.80
2014,04,26,02,27,3.80
2014,04,26,02,28,3.80
2014,04,26,02,29,3.80
2014,04,26,02,30,3.80
2014,04,26,02,31,3.80
2014,04,26,02,32,3.80
2014,04,26,02,33,3.80
2014,04,26,02,34,3.80
2014,04,26,02,35,3.80
2014,04,26,02,36,3.80
2014,04,26,02,37,3.80
2014,04,26,02,38,3.80
2014,04,26,02,39,3.80
2014,04,26,02,40,3.80
2014,04,26,02,41,3.80
2014,04,26,02,42,3.80
2014,04,26,02,43,3.80
2014,04,26,02,44,3.80
2014,04,26,02,45,3.80
2014,04,26,02,46,3.80
2014,04,26,02,47,3.80
2014,04,26,02,48,3.80
2014,04,26,02,49,3.70
2014,04,26,02,50,3.70
2014,04,26,02,51,3.70
2014,04,26,02,52,3.70
2014,04,26,02,53,3.70
2014,04,26,02,54,3.70
2014,04,26,02,55,3.70
2014,04,26,02,56,3.70
2014,04,26,02,57,3.70
2014,04,26,02,58,3.70
2014,04,26,02,59,3.70
2014,04,26,03,00,3.70
2014,04,26,03,01,3.60
2014,04,26,03,02,3.60
2014,04,26,03,06,3.60
2014,04,26,03,07,3.60
2014,04,26,03,08,3.60
2014,04,26,03,09,3.60
2014,04,26,03,10,3.60
2014,04,26,03,11,3.50
2014,04,26,03,12,3.50
2014,04,26,03,13,3.50
2014,04,26,03,14,3.50
2014,04,26,03,15,3.50
2014,04,26,03,16,3.50
2014,04,26,03,17,3.50
2014,04,26,03,18,3.50
2014,04,26,03,19,3.50
2014,04,26,03,20,3.50
2014,04,26,03,21,3.50
2014,04,26,03,22,3.50
2014,04,26,03,23,3.50
2014,04,26,03,24,3.40
2014,04,26,03,25,3.40
2014,04,26,03,26,3.40
2014,04,26,03,27,3.40
2014,04,26,03,28,3.40
2014,04,26,03,29,3.40
2014,04,26,03,30,3.40
2014,04,26,03,31,3.40
2014,04,26,03,32,3.40
2014,04,26,03,33,3.40
2014,04,26,03,34,3.40
2014,04,26,03,35,3.40
2014,04,26,03,36,3.30
2014,04,26,03,37,3.30
2014,04,26,03,38,3.30
2014,04,26,03,39,3.30
2014,04,26,03,40,3.30
2014,04,26,03,41,3.30
2014,04,26,03,42,3.30
2014,04,26,03,43,3.30
2014,04,26,03,44,3.30
2014,04,26,03,45,3.30
2014,04,26,03,46,3.30
2014,04,26,03,47,3.30
2014,04,26,03,48,3.20
2014,04,26,03,49,3.20
2014,04,26,03,50,3.20
2014,04,26,03,51,3.20
2014,04,26,03,52,3.10
2014,04,26,03,53,3.10
2014,04,26,03,54,3.10
2014,04,26,03,55,3.00
2014,04,26,03,56,3.00
2014,04,26,03,57,3.00
2014,04,26,03,58,2.90
2014,04,26,03,59,2.90
2014,04,26,04,00,2.90
2014,04,26,04,01,2.90
2014,04,26,04,02,2.80
2014,04,26,04,03,2.90
2014,04,26,04,04,2.90
2014,04,26,04,05,2.90
2014,04,26,04,06,2.90
2014,04,26,04,07,2.90
2014,04,26,04,08,2.90
2014,04,26,04,09,2.90
2014,04,26,04,10,2.90
2014,04,26,04,11,2.90
2014,04,26,04,12,2.90
2014,04,26,04,13,2.90
2014,04,26,04,14,2.90
2014,04,26,04,15,2.90
2014,04,26,04,16,2.90
2014,04,26,04,17,2.90
2014,04,26,04,18,2.90
2014,04,26,04,19,2.90
2014,04,26,04,20,2.90
2014,04,26,04,21,2.90
2014,04,26,04,22,2.90
2014,04,26,04,23,2.90
2014,04,26,04,24,2.90
2014,04,26,04,25,2.90
2014,04,26,04,26,2.90
2014,04,26,04,27,2.80
2014,04,26,04,28,2.80
2014,04,26,04,29,2.80
2014,04,26,04,30,2.80
2014,04,26,04,31,2.80
2014,04,26,04,32,2.80
2014,04,26,04,33,2.80
2014,04,26,04,34,2.80
2014,04,26,04,35,2.80
2014,04,26,04,36,2.80
2014,04,26,04,37,2.80
2014,04,26,04,38,2.80
2014,04,26,04,39,2.80
2014,04,26,04,40,2.80
2014,04,26,04,41,2.80
2014,04,26,04,42,2.80
2014,04,26,04,43,2.80
2014,04,26,04,44,2.80
2014,04,26,04,45,2.80
2014,04,26,04,46,2.80
2014,04,26,04,47,2.80
2014,04,26,04,48,2.80
2014,04,26,04,49,2.80
2014,04,26,04,50,2.80
2014,04,26,04,51,2.80
2014,04,26,04,52,2.80
2014,04,26,04,53,2.70
2014,04,26,04,54,2.70
2014,04,26,04,55,2.60
2014,04,26,04,56,2.60
2014,04,26,04,57,2.50
2014,04,26,04,58,2.50
2014,04,26,04,59,2.40
2014,04,26,05,00,2.40
2014,04,26,05,01,2.30
2014,04,26,05,02,2.30
2014,04,26,05,03,2.30
2014,04,26,05,04,2.20
2014,04,26,05,05,2.20
2014,04,26,05,06,2.20
2014,04,26,05,07,2.20
2014,04,26,05,08,2.20
2014,04,26,05,09,2.20
2014,04,26,05,10,2.10
2014,04,26,05,11,2.10
2014,04,26,05,12,2.10
2014,04,26,05,13,2.10
2014,04,26,05,14,2.00
2014,04,26,05,15,2.00
2014,04,26,05,16,2.00
2014,04,26,05,17,1.90
2014,04,26,05,18,1.90
2014,04,26,05,19,1.90
2014,04,26,05,20,1.90
2014,04,26,05,21,1.80
2014,04,26,05,22,1.80
2014,04,26,05,23,1.80
2014,04,26,05,24,1.80
2014,04,26,05,25,1.80
2014,04,26,05,26,1.80
2014,04,26,05,27,1.80
2014,04,26,05,28,1.80
2014,04,26,05,29,1.80
2014,04,26,05,30,1.80
2014,04,26,05,31,1.90
2014,04,26,05,32,1.90
2014,04,26,05,33,1.90
2014,04,26,05,34,1.90
2014,04,26,05,35,1.90
2014,04,26,05,36,2.00
2014,04,26,05,37,2.00
2014,04,26,05,38,2.00
2014,04,26,05,39,2.00
2014,04,26,05,40,2.00
2014,04,26,05,41,2.00
2014,04,26,05,42,2.00
2014,04,26,05,43,2.10
2014,04,26,05,44,2.10
2014,04,26,05,45,2.10
2014,04,26,05,46,2.10
2014,04,26,05,47,2.10
2014,04,26,05,48,2.10
2014,04,26,05,49,2.10
2014,04,26,05,50,2.10
2014,04,26,05,51,2.10
2014,04,26,05,52,2.20
2014,04,26,05,53,2.20
2014,04,26,05,54,2.20
2014,04,26,05,55,2.20
2014,04,26,05,56,2.20
2014,04,26,05,57,2.20
2014,04,26,05,58,2.20
2014,04,26,05,59,2.20
2014,04,26,06,00,2.20
2014,04,26,06,01,2.20
2014,04,26,06,02,2.20
2014,04,26,06,03,2.20
2014,04,26,06,04,2.20
2014,04,26,06,05,2.20
2014,04,26,06,06,2.20
2014,04,26,06,07,2.20
2014,04,26,06,08,2.20
2014,04,26,06,09,2.20
2014,04,26,06,10,2.20
2014,04,26,06,11,2.20
2014,04,26,06,12,2.20
2014,04,26,06,13,2.30
2014,04,26,06,14,2.30
2014,04,26,06,15,2.30
2014,04,26,06,16,2.30
2014,04,26,06,17,2.30
2014,04,26,06,18,2.30
2014,04,26,06,19,2.30
2014,04,26,06,20,2.30
2014,04,26,06,21,2.30
2014,04,26,06,22,2.30
2014,04,26,06,23,2.30
2014,04,26,06,24,2.30
2014,04,26,06,25,2.30
2014,04,26,06,26,2.30
2014,04,26,06,27,2.30
2014,04,26,06,28,2.30
2014,04,26,06,29,2.30
2014,04,26,06,30,2.30
2014,04,26,06,31,2.40
2014,04,26,06,32,2.40
2014,04,26,06,33,2.40
2014,04,26,06,34,2.50
2014,04,26,06,35,2.50
2014,04,26,06,36,2.60
2014,04,26,06,37,2.60
2014,04,26,06,38,2.60
2014,04,26,06,39,2.70
2014,04,26,06,40,2.70
2014,04,26,06,41,2.70
2014,04,26,06,42,2.70
2014,04,26,06,43,2.80
2014,04,26,06,44,2.80
2014,04,26,06,45,2.80
2014,04,26,06,46,2.80
2014,04,26,06,47,2.80
2014,04,26,06,48,2.90
2014,04,26,06,49,2.90
2014,04,26,06,50,2.90
2014,04,26,06,51,2.90
2014,04,26,06,52,2.90
2014,04,26,06,53,3.00
2014,04,26,06,54,3.00
2014,04,26,06,55,3.10
2014,04,26,06,56,3.10
2014,04,26,06,57,3.10
2014,04,26,06,58,3.10
2014,04,26,06,59,3.20
2014,04,26,07,00,3.20
2014,04,26,07,01,3.20
2014,04,26,07,02,3.20
2014,04,26,07,03,3.30
2014,04,26,07,04,3.30
2014,04,26,07,05,3.30
2014,04,26,07,06,3.30
2014,04,26,07,07,3.40
2014,04,26,07,08,3.40
2014,04,26,07,09,3.40
2014,04,26,07,10,3.40
2014,04,26,07,11,3.40
2014,04,26,07,12,3.50
2014,04,26,07,13,3.50
2014,04,26,07,14,3.60
2014,04,26,07,15,3.60
2014,04,26,07,16,3.60
2014,04,26,07,17,3.70
2014,04,26,07,18,3.70
2014,04,26,07,19,3.70
2014,04,26,07,20,3.70
2014,04,26,07,21,3.70
2014,04,26,07,22,3.70
2014,04,26,07,23,3.70
2014,04,26,07,24,3.80
2014,04,26,07,25,3.80
2014,04,26,07,26,3.80
2014,04,26,07,27,3.80
2014,04,26,07,28,3.80
2014,04,26,07,29,3.80
2014,04,26,07,30,3.80
2014,04,26,07,31,3.80
2014,04,26,07,32,3.80
2014,04,26,07,33,3.80
2014,04,26,07,34,3.80
2014,04,26,07,35,3.80
2014,04,26,07,36,3.80
2014,04,26,07,37,3.80
2014,04,26,07,38,3.80
2014,04,26,07,39,3.80
2014,04,26,07,40,3.80
2014,04,26,07,41,3.80
2014,04,26,07,42,3.90
2014,04,26,07,43,3.90
2014,04,26,07,44,3.90
2014,04,26,07,45,3.90
2014,04,26,07,46,3.90
2014,04,26,07,47,3.90
2014,04,26,07,48,4.00
2014,04,26,07,49,4.00
2014,04,26,07,50,4.10
2014,04,26,07,51,4.10
2014,04,26,07,52,4.20
2014,04,26,07,53,4.30
2014,04,26,07,54,4.30
2014,04,26,07,55,4.40
2014,04,26,07,56,4.40
2014,04,26,07,57,4.40
2014,04,26,07,58,4.50
2014,04,26,07,59,4.60
2014,04,26,08,00,4.60
2014,04,26,08,01,4.70
2014,04,26,08,02,4.80
2014,04,26,08,03,4.80
2014,04,26,08,04,4.90
2014,04,26,08,05,5.00
2014,04,26,08,06,5.10
2014,04,26,08,07,5.10
2014,04,26,08,08,5.20
2014,04,26,08,09,5.30
2014,04,26,08,10,5.40
2014,04,26,08,11,5.50
2014,04,26,08,12,5.60
2014,04,26,08,13,5.70
2014,04,26,08,14,5.80
2014,04,26,08,15,5.80
2014,04,26,08,16,5.90
2014,04,26,08,17,6.00
2014,04,26,08,18,6.10
2014,04,26,08,19,6.20
2014,04,26,08,20,6.20
2014,04,26,08,21,6.30
2014,04,26,08,22,6.30
2014,04,26,08,23,6.40
2014,04,26,08,24,6.40
2014,04,26,08,25,6.50
2014,04,26,08,26,6.60
2014,04,26,08,27,6.70
2014,04,26,08,28,6.70
2014,04,26,08,29,6.80
2014,04,26,08,30,6.90
2014,04,26,08,31,7.00
2014,04,26,08,32,7.10
2014,04,26,08,33,7.20
2014,04,26,08,34,7.20
2014,04,26,08,35,7.30
2014,04,26,08,36,7.40
2014,04,26,08,37,7.50
2014,04,26,08,38,7.60
2014,04,26,08,39,7.60
2014,04,26,08,40,7.60
2014,04,26,08,41,7.60
2014,04,26,08,42,7.60
2014,04,26,08,43,7.70
2014,04,26,08,44,7.70
2014,04,26,08,45,7.70
2014,04,26,08,46,7.70
2014,04,26,08,47,7.70
2014,04,26,08,48,7.80
2014,04,26,08,49,7.80
2014,04,26,08,50,7.80
2014,04,26,08,51,7.80
2014,04,26,08,52,7.90
2014,04,26,08,53,7.90
2014,04,26,08,54,8.00
2014,04,26,08,55,8.00
2014,04,26,08,56,8.10
2014,04,26,08,57,8.10
2014,04,26,08,58,8.10
2014,04,26,08,59,8.10
2014,04,26,09,00,8.10
2014,04,26,09,01,8.10
2014,04,26,09,02,8.10
2014,04,26,09,03,8.10
2014,04,26,09,04,8.20
2014,04,26,09,05,8.20
2014,04,26,09,06,8.30
2014,04,26,09,07,8.30
2014,04,26,09,08,8.40
2014,04,26,09,09,8.40
2014,04,26,09,10,8.40
2014,04,26,09,11,8.40
2014,04,26,09,12,8.40
2014,04,26,09,13,8.40
2014,04,26,09,14,8.40
2014,04,26,09,15,8.30
2014,04,26,09,16,8.30
2014,04,26,09,17,8.30
2014,04,26,09,18,8.30
2014,04,26,09,19,8.30
2014,04,26,09,20,8.30
2014,04,26,09,21,8.30
2014,04,26,09,22,8.30
2014,04,26,09,23,8.30
2014,04,26,09,24,8.30
2014,04,26,09,25,8.30
2014,04,26,09,26,8.30
2014,04,26,09,27,8.30
2014,04,26,09,28,8.30
2014,04,26,09,29,8.30
2014,04,26,09,30,8.30
2014,04,26,09,31,8.30
2014,04,26,09,32,8.30
2014,04,26,09,33,8.30
2014,04,26,09,34,8.40
2014,04,26,09,35,8.40
2014,04,26,09,36,8.40
2014,04,26,09,37,8.40
2014,04,26,09,38,8.40
2014,04,26,09,39,8.50
2014,04,26,09,40,8.50
2014,04,26,09,41,8.50
2014,04,26,09,42,8.50
2014,04,26,09,43,8.60
2014,04,26,09,44,8.60
2014,04,26,09,45,8.60
2014,04,26,09,46,8.60
2014,04,26,09,47,8.70
2014,04,26,09,48,8.70
2014,04,26,09,49,8.80
2014,04,26,09,50,8.90
2014,04,26,09,51,8.90
2014,04,26,09,52,9.00
2014,04,26,09,53,9.00
2014,04,26,09,54,9.00
2014,04,26,09,55,9.00
2014,04,26,09,56,9.00
2014,04,26,09,57,9.00
2014,04,26,09,58,9.10
2014,04,26,09,59,9.10
2014,04,26,10,00,9.10
2014,04,26,10,01,9.20
2014,04,26,10,02,9.20
2014,04,26,10,03,9.20
2014,04,26,10,04,9.30
2014,04,26,10,05,9.30
2014,04,26,10,06,9.40
2014,04,26,10,07,9.40
2014,04,26,10,08,9.50
2014,04,26,10,09,9.50
2014,04,26,10,10,9.60
2014,04,26,10,11,9.70
2014,04,26,10,12,9.70
2014,04,26,10,13,9.80
2014,04,26,10,14,9.80
2014,04,26,10,15,9.80
2014,04,26,10,16,9.90
2014,04,26,10,17,9.90
2014,04,26,10,18,10.00
2014,04,26,10,19,10.10
2014,04,26,10,20,10.20
2014,04,26,10,21,10.30
2014,04,26,10,22,10.30
2014,04,26,10,23,10.30
2014,04,26,10,24,10.40
2014,04,26,10,25,10.40
2014,04,26,10,26,10.50
2014,04,26,10,27,10.50
2014,04,26,10,28,10.50
2014,04,26,10,29,10.50
2014,04,26,10,30,10.50
2014,04,26,10,31,10.50
2014,04,26,10,32,10.50
2014,04,26,10,33,10.40
2014,04,26,10,34,10.40
2014,04,26,10,35,10.40
2014,04,26,10,36,10.40
2014,04,26,10,37,10.40
2014,04,26,10,38,10.40
2014,04,26,10,39,10.30
2014,04,26,10,40,10.30
2014,04,26,10,41,10.30
2014,04,26,10,42,10.30
2014,04,26,10,43,10.30
2014,04,26,10,44,10.30
2014,04,26,10,45,10.30
2014,04,26,10,46,10.30
2014,04,26,10,47,10.30
2014,04,26,10,48,10.30
2014,04,26,10,49,10.30
2014,04,26,10,50,10.30
2014,04,26,10,51,10.40
2014,04,26,10,52,10.40
2014,04,26,10,53,10.50
2014,04,26,10,54,10.50
2014,04,26,10,55,10.60
2014,04,26,10,56,10.70
2014,04,26,10,57,10.70
2014,04,26,10,58,10.80
2014,04,26,10,59,10.80
2014,04,26,11,00,10.90
2014,04,26,11,01,10.90
2014,04,26,11,02,11.00
2014,04,26,11,03,11.00
2014,04,26,11,04,11.10
2014,04,26,11,05,11.20
2014,04,26,11,06,11.20
2014,04,26,11,07,11.30
2014,04,26,11,08,11.30
2014,04,26,11,09,11.40
2014,04,26,11,10,11.50
2014,04,26,11,11,11.50
2014,04,26,11,12,11.60
2014,04,26,11,13,11.60
2014,04,26,11,14,11.50
2014,04,26,11,15,11.50
2014,04,26,11,16,11.60
2014,04,26,11,17,11.60
2014,04,26,11,18,11.50
2014,04,26,11,19,11.50
2014,04,26,11,20,11.50
2014,04,26,11,21,11.50
2014,04,26,11,22,11.50
2014,04,26,11,23,11.60
2014,04,26,11,24,11.60
2014,04,26,11,25,11.70
2014,04,26,11,26,11.70
2014,04,26,11,27,11.80
2014,04,26,11,28,11.90
2014,04,26,11,29,11.90
2014,04,26,11,30,11.90
2014,04,26,11,31,12.00
2014,04,26,11,32,12.10
2014,04,26,11,33,12.10
2014,04,26,11,34,12.10
2014,04,26,11,35,12.10
2014,04,26,11,36,12.10
2014,04,26,11,37,12.00
2014,04,26,11,38,11.90
2014,04,26,11,39,11.80
2014,04,26,11,40,11.70
2014,04,26,11,41,11.60
2014,04,26,11,42,11.50
2014,04,26,11,43,11.50
2014,04,26,11,44,11.50
2014,04,26,11,45,11.50
2014,04,26,11,46,11.50
2014,04,26,11,47,11.60
2014,04,26,11,48,11.60
2014,04,26,11,49,11.70
2014,04,26,11,50,11.70
2014,04,26,11,51,11.60
2014,04,26,11,52,11.60
2014,04,26,11,53,11.60
2014,04,26,11,54,11.60
2014,04,26,11,55,11.50
2014,04,26,11,56,11.50
2014,04,26,11,57,11.40
2014,04,26,11,58,11.40
2014,04,26,11,59,11.30
2014,04,26,12,00,11.30
2014,04,26,12,01,11.30
2014,04,26,12,02,11.40
2014,04,26,12,03,11.40
2014,04,26,12,04,11.40
2014,04,26,12,05,11.30
2014,04,26,12,06,11.30
2014,04,26,12,07,11.30
2014,04,26,12,08,11.30
2014,04,26,12,09,11.30
2014,04,26,12,10,11.30
2014,04,26,12,11,11.30
2014,04,26,12,12,11.30
2014,04,26,12,13,11.30
2014,04,26,12,14,11.40
2014,04,26,12,15,11.50
2014,04,26,12,16,11.60
2014,04,26,12,17,11.60
2014,04,26,12,18,11.70
2014,04,26,12,19,11.70
2014,04,26,12,20,11.80
2014,04,26,12,21,11.90
2014,04,26,12,22,11.90
2014,04,26,12,23,12.00
2014,04,26,12,24,12.00
2014,04,26,12,25,12.10
2014,04,26,12,26,12.10
2014,04,26,12,27,12.10
2014,04,26,12,28,12.10
2014,04,26,12,29,12.10
2014,04,26,12,30,12.10
2014,04,26,12,31,12.10
2014,04,26,12,32,12.10
2014,04,26,12,33,12.10
2014,04,26,12,34,12.20
2014,04,26,12,35,12.20
2014,04,26,12,36,12.30
2014,04,26,12,37,12.40
2014,04,26,12,38,12.40
2014,04,26,12,39,12.40
2014,04,26,12,40,12.50
2014,04,26,12,41,12.50
2014,04,26,12,42,12.50
2014,04,26,12,43,12.50
2014,04,26,12,44,12.50
2014,04,26,12,45,12.50
2014,04,26,12,46,12.50
2014,04,26,12,47,12.40
2014,04,26,12,48,12.40
2014,04,26,12,49,12.50
2014,04,26,12,50,12.60
2014,04,26,12,51,12.50
2014,04,26,12,52,12.50
2014,04,26,12,53,12.40
2014,04,26,12,54,12.30
2014,04,26,12,55,12.20
2014,04,26,12,56,12.10
2014,04,26,12,57,12.10
2014,04,26,12,58,12.10
2014,04,26,12,59,12.10
2014,04,26,13,00,12.00
2014,04,26,13,01,11.90
2014,04,26,13,02,11.90
2014,04,26,13,03,11.80
2014,04,26,13,04,11.80
2014,04,26,13,05,11.80
2014,04,26,13,06,11.80
2014,04,26,13,07,11.80
2014,04,26,13,08,11.80
2014,04,26,13,09,11.80
2014,04,26,13,10,11.90
2014,04,26,13,11,11.90
2014,04,26,13,12,12.00
2014,04,26,13,13,12.00
2014,04,26,13,14,11.90
2014,04,26,13,15,11.90
2014,04,26,13,16,11.80
2014,04,26,13,17,11.80
2014,04,26,13,18,11.80
2014,04,26,13,19,11.80
2014,04,26,13,20,11.80
2014,04,26,13,21,11.80
2014,04,26,13,22,11.80
2014,04,26,13,23,11.80
2014,04,26,13,24,11.80
2014,04,26,13,25,11.90
2014,04,26,13,26,12.00
2014,04,26,13,27,12.10
2014,04,26,13,28,12.10
2014,04,26,13,29,12.10
2014,04,26,13,30,12.20
2014,04,26,13,31,12.20
2014,04,26,13,32,12.30
2014,04,26,13,33,12.30
2014,04,26,13,34,12.40
2014,04,26,13,35,12.40
2014,04,26,13,36,12.40
2014,04,26,13,37,12.40
2014,04,26,13,38,12.40
2014,04,26,13,39,12.40
2014,04,26,13,40,12.30
2014,04,26,13,41,12.30
2014,04,26,13,42,12.40
2014,04,26,13,43,12.40
2014,04,26,13,44,12.40
2014,04,26,13,45,12.30
2014,04,26,13,46,12.20
2014,04,26,13,47,12.00
2014,04,26,13,48,11.90
2014,04,26,13,49,11.80
2014,04,26,13,50,11.80
2014,04,26,13,51,11.80
2014,04,26,13,52,11.70
2014,04,26,13,53,11.70
2014,04,26,13,54,11.70
2014,04,26,13,55,11.60
2014,04,26,13,56,11.60
2014,04,26,13,57,11.50
2014,04,26,13,58,11.50
2014,04,26,13,59,11.50
2014,04,26,14,00,11.50
2014,04,26,14,01,11.50
2014,04,26,14,02,11.60
2014,04,26,14,03,11.60
2014,04,26,14,04,11.50
2014,04,26,14,05,11.50
2014,04,26,14,06,11.50
2014,04,26,14,07,11.60
2014,04,26,14,08,11.60
2014,04,26,14,09,11.70
2014,04,26,14,10,11.70
2014,04,26,14,11,11.80
2014,04,26,14,12,11.80
2014,04,26,14,13,11.90
2014,04,26,14,14,11.90
2014,04,26,14,15,12.00
2014,04,26,14,16,12.10
2014,04,26,14,17,12.10
2014,04,26,14,18,12.00
2014,04,26,14,19,12.00
2014,04,26,14,20,11.90
2014,04,26,14,21,11.90
2014,04,26,14,22,11.90
2014,04,26,14,23,11.80
2014,04,26,14,24,11.80
2014,04,26,14,25,11.80
2014,04,26,14,26,11.80
2014,04,26,14,27,11.80
2014,04,26,14,28,11.80
2014,04,26,14,29,11.90
2014,04,26,14,30,11.90
2014,04,26,14,31,11.90
2014,04,26,14,32,12.00
2014,04,26,14,33,12.00
2014,04,26,14,34,12.10
2014,04,26,14,35,12.20
2014,04,26,14,36,12.20
2014,04,26,14,37,12.30
2014,04,26,14,38,12.40
2014,04,26,14,39,12.50
2014,04,26,14,40,12.50
2014,04,26,14,41,12.60
2014,04,26,14,42,12.50
2014,04,26,14,43,12.50
2014,04,26,14,44,12.60
2014,04,26,14,45,12.60
2014,04,26,14,46,12.60
2014,04,26,14,47,12.70
2014,04,26,14,48,12.70
2014,04,26,14,49,12.80
2014,04,26,14,50,12.80
2014,04,26,14,51,12.80
2014,04,26,14,52,12.90
2014,04,26,14,53,12.90
2014,04,26,14,54,13.00
2014,04,26,14,55,12.90
2014,04,26,14,56,12.90
2014,04,26,14,57,12.90
2014,04,26,14,58,12.90
2014,04,26,14,59,12.80
2014,04,26,15,00,12.70
2014,04,26,15,01,12.50
2014,04,26,15,02,12.40
2014,04,26,15,03,12.30
2014,04,26,15,04,12.30
2014,04,26,15,05,12.20
2014,04,26,15,06,12.20
2014,04,26,15,07,12.20
2014,04,26,15,08,12.20
2014,04,26,15,09,12.20
2014,04,26,15,10,12.20
2014,04,26,15,11,12.20
2014,04,26,15,12,12.20
2014,04,26,15,13,12.20
2014,04,26,15,14,12.30
2014,04,26,15,15,12.30
2014,04,26,15,16,12.30
2014,04,26,15,17,12.30
2014,04,26,15,18,12.20
2014,04,26,15,19,12.20
2014,04,26,15,20,12.10
2014,04,26,15,21,12.10
2014,04,26,15,22,12.00
2014,04,26,15,23,11.90
2014,04,26,15,24,11.80
2014,04,26,15,25,11.70
2014,04,26,15,26,11.70
2014,04,26,15,27,11.60
2014,04,26,15,28,11.50
2014,04,26,15,29,11.50
2014,04,26,15,30,11.50
2014,04,26,15,31,11.40
2014,04,26,15,32,11.40
2014,04,26,15,33,11.40
2014,04,26,15,34,11.40
2014,04,26,15,35,11.40
2014,04,26,15,36,11.30
2014,04,26,15,37,11.30
2014,04,26,15,38,11.30
2014,04,26,15,39,11.20
2014,04,26,15,40,11.20
2014,04,26,15,41,11.10
2014,04,26,15,42,11.10
2014,04,26,15,43,11.10
2014,04,26,15,44,11.10
2014,04,26,15,45,11.10
2014,04,26,15,46,11.10
2014,04,26,15,47,11.10
2014,04,26,15,48,11.10
2014,04,26,15,49,11.10
2014,04,26,15,50,11.10
2014,04,26,15,51,11.10
2014,04,26,15,52,11.20
2014,04,26,15,53,11.20
2014,04,26,15,54,11.30
2014,04,26,15,55,11.30
2014,04,26,15,56,11.30
2014,04,26,15,57,11.30
2014,04,26,15,58,11.30
2014,04,26,15,59,11.30
2014,04,26,16,00,11.40
2014,04,26,16,01,11.40
2014,04,26,16,02,11.40
2014,04,26,16,03,11.40
2014,04,26,16,04,11.50
2014,04,26,16,05,11.50
2014,04,26,16,06,11.60
2014,04,26,16,07,11.70
2014,04,26,16,08,11.80
2014,04,26,16,09,12.00
2014,04,26,16,10,12.10
2014,04,26,16,11,12.10
2014,04,26,16,12,12.20
2014,04,26,16,13,12.30
2014,04,26,16,14,12.20
2014,04,26,16,15,12.20
2014,04,26,16,16,12.10
2014,04,26,16,17,12.10
2014,04,26,16,18,12.00
2014,04,26,16,19,11.90
2014,04,26,16,20,11.90
2014,04,26,16,21,11.80
2014,04,26,16,22,11.80
2014,04,26,16,23,11.80
2014,04,26,16,24,11.80
2014,04,26,16,25,11.70
2014,04,26,16,26,11.70
2014,04,26,16,27,11.60
2014,04,26,16,28,11.60
2014,04,26,16,29,11.50
2014,04,26,16,30,11.40
2014,04,26,16,31,11.40
2014,04,26,16,32,11.40
2014,04,26,16,33,11.30
2014,04,26,16,34,11.30
2014,04,26,16,35,11.30
2014,04,26,16,36,11.20
2014,04,26,16,37,11.20
2014,04,26,16,38,11.10
2014,04,26,16,39,11.10
2014,04,26,16,40,11.10
2014,04,26,16,41,11.00
2014,04,26,16,42,11.00
2014,04,26,16,43,10.90
2014,04,26,16,44,10.80
2014,04,26,16,45,10.80
2014,04,26,16,46,10.80
2014,04,26,16,47,10.80
2014,04,26,16,48,10.80
2014,04,26,16,49,10.80
2014,04,26,16,50,10.80
2014,04,26,16,51,10.80
2014,04,26,16,52,10.80
2014,04,26,16,53,10.80
2014,04,26,16,54,10.90
2014,04,26,16,55,10.90
2014,04,26,16,56,10.90
2014,04,26,16,57,10.90
2014,04,26,16,58,10.90
2014,04,26,16,59,11.00
2014,04,26,17,00,11.00
2014,04,26,17,01,11.00
2014,04,26,17,02,11.00
2014,04,26,17,03,11.10
2014,04,26,17,04,11.10
2014,04,26,17,05,11.10
2014,04,26,17,06,11.20
2014,04,26,17,07,11.20
2014,04,26,17,08,11.20
2014,04,26,17,09,11.30
2014,04,26,17,10,11.30
2014,04,26,17,11,11.30
2014,04,26,17,12,11.40
2014,04,26,17,13,11.40
2014,04,26,17,14,11.40
2014,04,26,17,15,11.40
2014,04,26,17,16,11.40
2014,04,26,17,17,11.40
2014,04,26,17,18,11.40
2014,04,26,17,19,11.40
2014,04,26,17,20,11.40
2014,04,26,17,21,11.40
2014,04,26,17,22,11.40
2014,04,26,17,23,11.40
2014,04,26,17,24,11.40
2014,04,26,17,25,11.40
2014,04,26,17,26,11.40
2014,04,26,17,27,11.40
2014,04,26,17,28,11.40
2014,04,26,17,29,11.30
2014,04,26,17,30,11.30
2014,04,26,17,31,11.30
2014,04,26,17,32,11.30
2014,04,26,17,33,11.30
2014,04,26,17,34,11.20
2014,04,26,17,35,11.20
2014,04,26,17,36,11.20
2014,04,26,17,37,11.20
2014,04,26,17,38,11.30
2014,04,26,17,39,11.20
2014,04,26,17,40,11.20
2014,04,26,17,41,11.20
2014,04,26,17,42,11.20
2014,04,26,17,43,11.20
2014,04,26,17,44,11.20
2014,04,26,17,45,11.10
2014,04,26,17,46,11.10
2014,04,26,17,47,11.10
2014,04,26,17,48,11.10
2014,04,26,17,49,11.10